Hermann Julius Oberth (25 June 1894 - 28 December 1989) was an Austro-Hungarian-born German physicist and engineer. He is considered one of the founding fathers of rocketry and astronautics. Read more
Johannes Hans Daniel Jensen (25 June 1907 in Hamburg - 11 February 1973 in Heidelberg) was a German nuclear physicist. During World War II, he worked on the German nuclear energy project, known as the Uranium Club, in which he made contributions to the separation of uranium isotopes. Jensen shared h...
25 - 28 June 2012 Toulouse, France The second IISL/IAA Space Law and Policy Symposium will take place in Toulouse on 26 June. The main theme of the symposium is Space Sustainability, and the day will be divided into 4 main sessions: Towards effective sustainability for outer space activities: insti...
Title: Discovery Of A Molecular Outflow in the Haro 6-10 Star-Forming Region Authors: Irena Stojimirovi\'c (1), Gopal Narayanan, Ronald L. Snel (University of Massachusetts, Amherst) ((1) IAR Boston University, Boston) We present high sensitivity 12CO and 13CO (1-0) molecular line maps...
ESA at the Toulouse Space Show ESA is a major partner at this year's Toulouse Space Show, being held 25-28 June. The Agency's participation will help to raise awareness of the pivotal role played by the space sector in today's society and as a driver of economic growth. [url=http://www.esa.int/es...
Ludus Festival Leeds will host an array of local and international performing arts talent, whilst supporting and promoting the cultural life of the City. Festival events will take place across the city from 25 June to 1 July 2012. Leeds residents and visitors can look forward to performances, inst...
Builders Discover Foundations Of A Meetinghouse 'Older Than The Egyptian Pyramids' A large prehistoric building older than Egypt's pyramids has been discovered in Wales. The foundations of a meeting house which was at least 50ft long were uncovered as builders worked on a new housing estate in M...
Live From Jodrell Bank, Cheshire with Paul Weller Regrettably due to the recent adverse weather conditions Paul Weller at Live Form Jodrell Bank, Cheshire has been cancelled. After conducting a site survey with an independent health and safety adviser and senior event management personnel the...
Orbital elements:
2012 ML6 Earth MOID = 0.0590 AU
Epoch 2012 Mar. 14.0 TT = JDT 2456000.5 MPC
M 340.00975 (2000.0) P Q
n 0.51455698 Peri. 83.51488 -0.89793547 +0.41583446
a 1.5423410 Node 120.97012 -0.44004206 -0.84176880
e 0.4642627 Incl. 9.68177 -0.00865316 -0.34424845
P 1.92 H 20.0 G 0...
Orbital elements:
2012 MK6 Earth MOID = 0.2101 AU
Epoch 2012 Mar. 14.0 TT = JDT 2456000.5 MPC
M 339.71233 (2000.0) P Q
n 0.22950845 Peri. 303.18060 +0.00768374 +0.99963784
a 2.6420250 Node 327.23017 -0.90086190 -0.00427487
e 0.5375389 Incl. 2.73111 -0.43403779 +0.02656918
P 4.29 H 18.8 G...
Orbital elements:
2012 MJ6 PHA, Earth MOID = 0.0266 AU
Epoch 2012 Mar. 14.0 TT = JDT 2456000.5 MPC
M 342.82563 (2000.0) P Q
n 0.39808864 Peri. 127.06070 -0.86025566 +0.48435500
a 1.8301339 Node 82.41897 -0.50375658 -0.75923580
e 0.4922586 Incl. 9.24485 -0.07867347 -0.43469671
P 2.48 H 21...
ISRO to build new class of powerful communication satellites Indian Space Research Organisation (ISRO) plans to build a new class of powerful communication satellites that packs more capacity and new technologies, its chairman K Radhakrishnan said here on Wednesday. This kind of spacecraft wo...